Beaver Island, MI

11:14 PM EDT on April 22, 2018 (GMT -0400)
Beaver Island

Weather History for KSJX - October, 2012

Change the Weather History Date:

Tuesday, October 16, 2012

  Actual Average Record
Temperature  
Mean Temperature 42 °F -  
Max Temperature 54 °F 54 °F 77 °F (1968)
Min Temperature 31 °F 40 °F 27 °F (1991)
Degree Days  
Heating Degree Days 22    
Moisture  
Dew Point 39 °F    
Average Humidity 82    
Maximum Humidity 95    
Minimum Humidity 63    
Precipitation  
Precipitation 0.00 in - - ()
Sea Level Pressure  
Sea Level Pressure 29.79 in    
Wind  
Wind Speed 3 mph (SSE)    
Max Wind Speed 12 mph    
Max Gust Speed 16 mph    
Visibility 10 miles    
Events Rain    
Averages and records for this station are not official NWS values.
T = Trace of Precipitation, MM = Missing Value Source: NWS Daily Summary

Daily Weather History Graph

Daily Weather History Graph

Search for Another Location

Airport or City:

Astronomy

Oct. 16, 2012 Rise Set
Actual Time 8:00 AM EDT 6:53 PM EDT
Civil Twilight 7:30 AM EDT 7:23 PM EDT
Nautical Twilight 6:56 AM EDT 7:58 PM EDT
Astronomical Twilight 6:21 AM EDT 8:32 PM EDT
Moon 9:29 AM EDT (10/16) 7:30 PM EDT (10/16)
Length of Visible Light 11h 53m
Length of Day
10h 53m
New Moon, 2% of the Moon is Illuminated
Oct 16
New Moon
Oct 21
First Quarter
Oct 29
Full
Nov 6
Last Quarter
Nov 13
New

Hourly Weather History & Observations

Time (EDT) Temp. Windchill Dew Point Humidity Pressure Visibility Wind Dir Wind Speed Gust Speed Precip Events Conditions
12:15 AM 35.6 °F - 31.5 °F 85% 29.92 in 10.0 mi Calm Calm - N/A   Clear
12:35 AM 34.0 °F - 30.7 °F 88% 29.92 in 10.0 mi Calm Calm - N/A   Clear
12:55 AM 33.6 °F - 31.1 °F 90% 29.92 in 10.0 mi Calm Calm - N/A   Clear
1:15 AM 32.4 °F - 30.0 °F 91% 29.92 in 10.0 mi Calm Calm - N/A   Clear
1:35 AM 32.5 °F - 30.4 °F 92% 29.92 in 10.0 mi Calm Calm - N/A   Clear
1:55 AM 32.0 °F - 30.0 °F 92% 29.93 in 10.0 mi Calm Calm - N/A   Clear
2:15 AM 32.0 °F - 30.4 °F 94% 29.92 in 10.0 mi Calm Calm - N/A   Clear
2:35 AM 32.2 °F - 30.4 °F 93% 29.92 in 10.0 mi Calm Calm - N/A   Clear
2:55 AM 32.9 °F - 31.1 °F 93% 29.92 in 10.0 mi Calm Calm - N/A   Clear
3:15 AM 32.7 °F - 30.9 °F 93% 29.92 in 10.0 mi Calm Calm - N/A   Clear
3:35 AM 32.5 °F - 30.9 °F 94% 29.92 in 10.0 mi Calm Calm - N/A   Clear
3:55 AM 32.0 °F - 30.0 °F 92% 29.92 in 10.0 mi Calm Calm - N/A   Clear
4:15 AM 32.2 °F - 30.6 °F 94% 29.91 in 10.0 mi Calm Calm - N/A   Clear
4:35 AM 32.0 °F - 30.2 °F 93% 29.91 in 10.0 mi Calm Calm - N/A   Clear
4:55 AM 31.6 °F - 29.8 °F 93% 29.91 in 10.0 mi Calm Calm - N/A   Clear
5:15 AM 31.8 °F - 30.0 °F 93% 29.91 in 10.0 mi Calm Calm - N/A   Clear
5:35 AM 31.8 °F - 30.0 °F 93% 29.90 in 10.0 mi Calm Calm - N/A   Clear
5:55 AM 32.2 °F - 30.9 °F 95% 29.90 in 10.0 mi Calm Calm - N/A   Clear
6:15 AM 32.9 °F - 31.1 °F 93% 29.90 in 10.0 mi Calm Calm - N/A   Clear
6:35 AM 32.9 °F 29.8 °F 31.5 °F 94% 29.89 in 10.0 mi East 3.5 mph - N/A   Clear
6:55 AM 33.1 °F - 31.8 °F 95% 29.89 in 10.0 mi Calm Calm - N/A   Scattered Clouds
7:15 AM 32.4 °F - 30.9 °F 94% 29.88 in 10.0 mi Calm Calm - N/A   Mostly Cloudy
7:35 AM 33.1 °F - 31.6 °F 94% 29.88 in 10.0 mi Calm Calm - N/A   Scattered Clouds
8:15 AM 33.6 °F - 32.0 °F 94% 29.87 in 10.0 mi Calm Calm - N/A   Overcast
8:35 AM 36.0 °F - 34.2 °F 93% 29.87 in 10.0 mi Calm Calm - N/A   Overcast
8:55 AM 38.5 °F 36.1 °F 36.5 °F 93% 29.87 in 10.0 mi SSE 3.5 mph - N/A   Overcast
9:15 AM 45.1 °F 43.7 °F 42.8 °F 91% 29.87 in 10.0 mi South 3.5 mph - N/A   Overcast
9:35 AM 46.8 °F - 41.5 °F 82% 29.86 in 10.0 mi South 5.8 mph - N/A   Overcast
9:55 AM 47.5 °F - 41.5 °F 80% 29.85 in 10.0 mi South 6.9 mph - N/A   Overcast
10:15 AM 48.7 °F - 42.6 °F 79% 29.84 in 10.0 mi South 8.1 mph - N/A   Overcast
10:35 AM 49.5 °F - 43.0 °F 78% 29.84 in 10.0 mi South 8.1 mph - N/A   Overcast
10:55 AM 50.5 °F - 43.7 °F 77% 29.83 in 10.0 mi SSE 11.5 mph - N/A   Overcast
11:15 AM 50.9 °F - 44.1 °F 77% 29.81 in 10.0 mi South 6.9 mph - N/A Rain Light Rain
11:35 AM 50.5 °F - 44.2 °F 79% 29.81 in 10.0 mi South 5.8 mph - N/A   Light Drizzle
11:55 AM 50.2 °F - 44.1 °F 79% 29.81 in 10.0 mi South 6.9 mph 16.1 mph N/A   Light Drizzle
12:15 PM 49.5 °F - 44.1 °F 82% 29.81 in 10.0 mi South 9.2 mph - N/A Rain Rain
12:35 PM 49.6 °F - 45.0 °F 84% 29.80 in 10.0 mi South 8.1 mph - N/A Rain Rain
12:55 PM 49.5 °F - 45.1 °F 85% 29.80 in 10.0 mi South 8.1 mph - N/A   Drizzle
1:15 PM 49.8 °F - 45.7 °F 86% 29.80 in 7.0 mi South 6.9 mph - N/A Rain Rain
1:35 PM 50.0 °F - 46.2 °F 87% 29.79 in 7.0 mi SSW 4.6 mph - N/A   Drizzle
1:55 PM 50.5 °F - 46.8 °F 87% 29.78 in 10.0 mi South 4.6 mph - N/A Rain Light Rain
2:15 PM 50.5 °F - 46.8 °F 87% 29.77 in 10.0 mi South 4.6 mph - N/A   Drizzle
2:35 PM 50.5 °F - 46.6 °F 86% 29.76 in 7.0 mi South 5.8 mph - N/A   Drizzle
2:55 PM 50.5 °F - 46.4 °F 86% 29.75 in 10.0 mi SSE 4.6 mph - N/A   Drizzle
3:15 PM 50.5 °F - 46.6 °F 86% 29.74 in 10.0 mi SE 3.5 mph - N/A   Drizzle
3:35 PM 50.9 °F - 46.6 °F 85% 29.73 in 10.0 mi SE 4.6 mph - N/A   Overcast
3:55 PM 51.6 °F - 46.8 °F 83% 29.74 in 10.0 mi South 3.5 mph - N/A   Overcast
4:15 PM 52.0 °F - 46.6 °F 82% 29.73 in 10.0 mi Calm Calm - N/A   Overcast
4:35 PM 52.5 °F - 46.2 °F 79% 29.71 in 10.0 mi SE 5.8 mph - N/A   Overcast
4:55 PM 53.1 °F - 46.0 °F 77% 29.70 in 10.0 mi SE 8.1 mph - N/A   Overcast
5:15 PM 53.1 °F - 45.0 °F 74% 29.68 in 10.0 mi SE 5.8 mph - N/A   Overcast
5:35 PM 53.4 °F - 44.4 °F 72% 29.66 in 10.0 mi SE 10.4 mph 16.1 mph N/A   Overcast
5:55 PM 54.5 °F - 43.9 °F 67% 29.68 in 10.0 mi Calm Calm - N/A   Mostly Cloudy
6:15 PM 54.5 °F - 43.7 °F 67% 29.68 in 10.0 mi Calm Calm - N/A   Scattered Clouds
6:34 PM 52.7 °F - 43.7 °F 71% 29.67 in 10.0 mi SE 4.6 mph - N/A   Scattered Clouds
6:55 PM 52.7 °F - 43.7 °F 71% 29.66 in 10.0 mi ESE 5.8 mph - N/A   Scattered Clouds
7:15 PM 52.9 °F - 43.9 °F 71% 29.66 in 10.0 mi SE 4.6 mph - N/A   Mostly Cloudy
7:35 PM 53.2 °F - 43.9 °F 71% 29.65 in 10.0 mi SE 6.9 mph - N/A   Overcast
7:55 PM 53.4 °F - 44.1 °F 71% 29.65 in 10.0 mi ESE 4.6 mph - N/A   Mostly Cloudy
8:15 PM 53.6 °F - 43.9 °F 70% 29.64 in 10.0 mi SE 4.6 mph - N/A   Scattered Clouds
8:35 PM 54.5 °F - 43.0 °F 65% 29.64 in 10.0 mi SE 6.9 mph - N/A   Mostly Cloudy
8:55 PM 54.5 °F - 42.8 °F 65% 29.63 in 10.0 mi SE 4.6 mph - N/A   Scattered Clouds
9:15 PM 54.5 °F - 42.8 °F 65% 29.63 in 10.0 mi SE 9.2 mph - N/A   Clear
9:35 PM 54.5 °F - 42.4 °F 64% 29.63 in 10.0 mi SE 8.1 mph - N/A   Scattered Clouds
9:55 PM 54.3 °F - 42.1 °F 63% 29.63 in 10.0 mi SE 8.1 mph - N/A   Mostly Cloudy
10:15 PM 53.6 °F - 42.4 °F 66% 29.64 in 10.0 mi SSE 6.9 mph - N/A   Overcast
10:35 PM 53.6 °F - 42.8 °F 67% 29.63 in 10.0 mi SSE 9.2 mph - N/A   Scattered Clouds
10:55 PM 53.6 °F - 42.4 °F 66% 29.62 in 10.0 mi SSE 9.2 mph - N/A   Scattered Clouds
11:35 PM 53.6 °F - 43.3 °F 68% 29.62 in 10.0 mi SE 10.4 mph - N/A   Clear
11:55 PM 54.5 °F - 43.0 °F 65% 29.61 in 10.0 mi SSE 11.5 mph 16.1 mph N/A   Clear